Flag for U.S.A. Weather past 2 weeks in Anderson, South Carolina, U.S.A.

Now
62 °F

Passing clouds.


Feels Like: 62 °F
Forecast: 54 / 73 °F
Wind: 8 mph from Northwest

Location: Anderson County Airport

Current Time: Apr 27, 2015 at 10:17:31 AM

Latest Report: Apr 27, 2015 at 9:56 AM


Visibility: 10 mi

Pressure: 29.88 "Hg

Humidity: 65%

Dew point: 50 °F

Location of AndersonLocation

Historic Weather in Anderson — Graph

°F

Anderson temperature yesterday

Maximum temperature yesterday: 81 °F (at 4:56 PM)
Minimum temperature yesterday: 55 °F (at 11:56 PM)
Average temperature yesterday: 69 °F

Past Weeks' High & Low Weather Summary

 TemperatureHumidityPressure
High81 °F (Apr 14, 3:56 PM)100% (Apr 17, 11:56 PM)30.32 "Hg (Apr 17, 11:56 PM)
Low41 °F (Apr 22, 6:56 AM)23% (Apr 23, 4:56 PM)29.54 "Hg (Apr 26, 3:56 AM)
Average63 °F75%29.96 "Hg
* Reported Apr 12 8:56 AM — Apr 27 8:56 AM, Anderson, Weather by CustomWeather, © 2015

Note: Actual official high and low records may vary slightly from our data, if they occured in-between our weather recording intervals... More about our weather records

Advertising

Anderson weather history for previous 24 hours

 ConditionsComfort  
Time TempWeatherWind HumidityBarometerVisibility
8:56 AM
Mon, Apr 27
57 °FPartly sunny.6 mph78%29.86 "Hg10 mi
7:56 AM55 °FMore clouds than sun.No wind83%29.83 "Hg10 mi
6:56 AM54 °FOvercast.No wind83%29.81 "Hg10 mi
5:56 AM55 °FOvercast.No wind77%29.80 "Hg10 mi
4:56 AM55 °FMostly cloudy.No wind77%29.77 "Hg10 mi
3:56 AM55 °FOvercast.3 mph77%29.77 "Hg10 mi
2:56 AM55 °FOvercast.7 mph77%29.77 "Hg10 mi
1:56 AM55 °FOvercast.5 mph77%29.78 "Hg10 mi
12:56 AM55 °FOvercast.8 mph77%29.79 "Hg10 mi
11:56 PM
Sun, Apr 26
55 °FPassing clouds.9 mph80%29.78 "Hg10 mi
10:56 PM57 °FClear.8 mph78%29.75 "Hg10 mi
9:56 PM60 °FClear.9 mph75%29.73 "Hg10 mi
8:56 PM63 °FPassing clouds.13 mph73%29.70 "Hg10 mi
7:56 PM67 °FMostly cloudy.9 mph71%29.66 "Hg10 mi
6:56 PM79 °FBroken clouds.7 mph41%29.61 "Hg10 mi
5:56 PM79 °FSunny.13 mph38%29.59 "Hg10 mi
4:56 PM81 °FSunny.18 mph35%29.57 "Hg10 mi
3:56 PM80 °FPassing clouds.14 mph39%29.58 "Hg10 mi
2:56 PM79 °FMostly cloudy.7 mph47%29.58 "Hg10 mi
1:56 PM80 °FBroken clouds.15 mph49%29.58 "Hg10 mi
12:56 PM78 °FPartly sunny.15 mph54%29.59 "Hg10 mi
11:56 AM78 °FSunny.10 mph52%29.61 "Hg10 mi
10:56 AM75 °FSunny.15 mph60%29.62 "Hg10 mi
Weather by CustomWeather, © 2015

See weather overviewHow to use our weather pages